{"data":{"norad_id":62228,"intl_designator":"2024-231L","name":"STARLINK-11476 [DTC]","alt_names":[],"object_type":"PAYLOAD","status":"ACTIVE","operator":null,"country":"US","launch_date":"2024-12-05","launch_site_code":"AFWTR","launch_vehicle":null,"mission":null,"orbit_class":"UNKNOWN","rcs_meters":null,"size_class":null,"mass_kg":null,"dimensions":null,"purposes":["comms"],"wikipedia_slug":null,"has_3d_model":false,"image_url":null,"decayed_at":null,"tle_current":{"epoch":"2026-09-21T07:56:17.113632Z","epoch_age_seconds":105912,"freshness":"FRESH","line1":"1 62228U 24231L   26264.33075363  .00140802  00000+0  11459-2 0  9998","line2":"2 62228  53.1569 216.4918 0001205 122.9251 237.1883 15.69742193104152","mean_motion":15.69742193,"eccentricity":0.0001205,"inclination_deg":53.1569,"raan_deg":216.4918,"arg_perigee_deg":122.9251,"mean_anomaly_deg":237.1883,"bstar":0.0011459,"rev_number":10415,"period_min":91.734808838129,"perigee_km":358.82272646988,"apogee_km":360.44652943221,"semimajor_km":6737.771627951,"source":"CELESTRAK","updated_at":"2026-09-22T09:00:49.563450Z"}}}